Regional Weather Roundup
Issued by NWS

Current Version | Previous Version | Text Only | Print | Product List | Glossary On
Versions: 1 2 3 4 5 6 7 8 9 10 11 12 13 14 15 16 17 18 19 20 21 22 23 24 25 26 27 28
000
ASUS44 KJAN 231210
RWRMS

MISSISSIPPI HOURLY WEATHER ROUNDUP
NATIONAL WEATHER SERVICE JACKSON MS
700 AM CDT MON OCT 23 2017

NOTE: "FAIR: INDICATES FEW OR NO CLOUDS BELOW 12,000 FEET WITH NO
SIGNIFICANT WEATHER AND/OR OBSTRUCTIONS TO VISIBILITY.

MSZ001>002-007>008-010>013-018>021-025>028-034>036-231300-
NORTHWEST MISSISSIPPI

CITY           SKY/WX    TMP DP  RH WIND       PRES   REMARKS
BATESVILLE     CLOUDY    54  52  92 CALM      29.99S
CLARKSDALE       N/A     55  55 100 W8        30.01S
CLEVELAND      CLOUDY    55  55 100 W7        30.02S
GREENWOOD      CLOUDY    57  53  86 VRB5      30.00R
6HR MIN TEMP:  56; 6HR MAX TEMP:  60; 6HR PCP: TRACE;

GREENVILLE     PTCLDY    52  48  86 W8        30.03S
6HR MIN TEMP:  52; 6HR MAX TEMP:  57;

OLIVE BRANCH   LGT RAIN N/A N/A N/A NW7       29.94  FOG
TUNICA           N/A    N/A N/A N/A W7        30.00S
WINONA         RAIN      55  55 100 CALM      29.99S
$$

MSZ003>006-009-014>017-022>024-029>033-037>039-231300-
NORTHEAST MISSISSIPPI

CITY           SKY/WX    TMP DP  RH WIND       PRES   REMARKS
COLUMBUS AFB   CLOUDY    57  57 100 W10       29.96R
6HR MIN TEMP:  58; 6HR MAX TEMP:  64; 6HR PCP:  0.01;

CORINTH        CLOUDY    55  54  94 W8        29.93R
GOLDN TRIANGLE CLOUDY    58  55  90 W5        29.97S
STARKVILLE     CLOUDY    57  54  88 NW5       29.99R
TUPELO         CLOUDY    57  53  86 W6        29.95R
6HR MIN TEMP:  57; 6HR MAX TEMP:  63; 6HR PCP:  0.01;

$$

MSZ040-058-231300-
CENTRAL MISSISSIPPI

CITY           SKY/WX    TMP DP  RH WIND       PRES   REMARKS
JACKSON INTL   MOCLDY    58  53  84 W6        30.03R
6HR MIN TEMP:  58; 6HR MAX TEMP:  62;

JACKSON HAWKNS MOCLDY    55  55 100 W6        30.03S
6HR MIN TEMP:  54; 6HR MAX TEMP:  60;

MADISON        PTSUNNY   54  52  94 CALM      30.03R
MERIDIAN KEY   CLOUDY    60  57  89 W3        30.00R
6HR MIN TEMP:  60; 6HR MAX TEMP:  64;

MERIDIAN NAS   CLOUDY    61  56  83 W14       29.99R
6HR MIN TEMP:  61; 6HR MAX TEMP:  66;

RAYMOND        PTSUNNY   57  55  94 NW7       30.04S
VICKSBURG VKS  PTSUNNY   55  54  94 VRB5      30.07S
$$

MSZ059>079-231300-
SOUTH MISSISSIPPI

CITY           SKY/WX    TMP DP  RH WIND       PRES   REMARKS
HATTIESBURG    CLOUDY    61  59  93 NW12      30.03R
6HR MIN TEMP:  60; 6HR MAX TEMP:  64;

LAUREL         CLOUDY    60  58  94 NW10      30.02R
MCCOMB         CLOUDY    58  55  90 NW9       30.05R
6HR MIN TEMP:  55; 6HR MAX TEMP:  59;

NATCHEZ        CLOUDY    57  55  93 NW8       30.08S
6HR MIN TEMP:  55; 6HR MAX TEMP:  59; 6HR PCP:  0.01;

PINE BELT      CLOUDY    60  56  86 VRB6      30.03R
6HR MIN TEMP:  60; 6HR MAX TEMP:  62;

$$

MSZ080>082-231300-
COASTAL MISSISSIPPI

CITY           SKY/WX    TMP DP  RH WIND       PRES   REMARKS
BAY ST LOUIS   MOCLDY    59  59 100 NW7       30.03
BILOXI         CLOUDY    61  59  91 N8        30.01R
6HR MIN TEMP:  61; 6HR MAX TEMP:  67;

PASCAGOULA     CLOUDY    62  58  86 NW9G18    30.00R
6HR MIN TEMP:  62; 6HR MAX TEMP:  69;

GULFPORT       CLOUDY    62  59  90 NW13G23   30.01R
6HR MIN TEMP:  61; 6HR MAX TEMP:  67;

$$

LAZ007>009-015>016-023>026-231300-
NORTHEAST LOUISIANA

CITY           SKY/WX    TMP DP  RH WIND       PRES   REMARKS
BASTROP        FAIR      47  46  98 W3        30.08S
TALLULAH/VBURG CLOUDY    54  54 100 W5        30.07R
6HR MIN TEMP:  52; 6HR MAX TEMP:  59;

VIDALIA          N/A    N/A N/A N/A MISG      30.09R
$$




USA.gov is the U.S. government's official web portal to all federal, state and local government web resources and services.